Location: Newark
(45.4422°N, 16.2769°E)
Time: 04:03:20
(UTC+00:00)

Vanguard 2 - Pass Details

Date: 13 December 2019
Orbit: 553 x 2938 km, 32.9° (Epoch: 27 January)

Event Time Altitude Azimuth Distance (km) Brightness Sun altitude
Rises 06:49:52 0° 275° (W) 6,782 11.8 2.6°
Reaches altitude 10° 06:57:15 10° 258° (WSW) 5,598 11.6 3.6°
Maximum altitude 07:05:19 16° 228° (SW) 4,747 11.5 4.7°
Drops below altitude 10° 07:12:20 10° 198° (SSW) 4,731 11.9 5.6°
Sets 07:17:43 0° 177° (S) 5,263 12.6 6.3°
